Location: *
(57.8420°S, 159.8600°W)
Time: 04:00:32
(UTC+00:00)

Cosmos 1933 - Pass Details

Date: 18 May 2021
Orbit: 547 x 562 km, 82.5° (Epoch: 20 June)

Event Time Altitude Azimuth Distance (km) Brightness Sun altitude
Rises 04:56:29 0° 194° (SSW) 2,810 7.0 -19.2°
Reaches altitude 10° 04:58:41 10° 195° (SSW) 1,905 6.2 -19.5°
Maximum altitude 05:02:53 80° 280° (W) 593 3.5 -20.1°
Drops below altitude 10° 05:07:02 10° 7° (N) 1,877 6.0 -20.6°
Sets 05:09:12 0° 7° (N) 2,764 6.9 -20.9°
